This demonstration page uses our WeatherBlox Daily Observations layout. Learn more.

36.17497, -115.13722

Hourly Observations for November 10, 2018

Temp ( °F °C ) Dew Point ( °F °C ) Humidity (%) Winds ( mph kmh ) Pressure ( in mb ) Visibility ( mi km ) Precip ( " mm )
12:53 am 00:53 Clear 43 6.1 10 -12.2 26 26 NW 6 9 30.12 1020 10 16.09344 0 0
1:53 am 01:53 Clear 47 8.3 6 -14.4 19 19 N 6 9 30.12 1020 10 16.09344 0 0
2:53 am 02:53 Clear 41 5 12 -11.1 30 30 NNW 6 9 30.09 1019 10 16.09344 0 0
3:53 am 03:53 Clear 43 6.1 7 -13.9 22 22 NW 7 11 30.09 1019 10 16.09344 0 0
4:53 am 04:53 Clear 43 6.1 6 -14.4 22 22 W 5 7 30.09 1019 10 16.09344 0 0
5:53 am 05:53 Clear 40 4.4 8 -13.3 27 27 Calm 30.09 1019 10 16.09344 0 0
6:53 am 06:53 Sunny 42 5.6 5 -15 21 21 NNW 6 9 30.09 1019 10 16.09344 0 0
7:53 am 07:53 Sunny 49 9.4 3 -16.1 15 15 NNW 7 11 30.12 1020 10 16.09344 0 0
8:53 am 08:53 Sunny 54 12.2 1 -17.2 11 11 Calm 30.12 1020 10 16.09344 0 0
9:53 am 09:53 Sunny 56 13.3 3 -16.1 11 11 ESE 3 6 30.09 1019 10 16.09344 0 0
10:53 am 10:53 Sunny 58 14.4 5 -15 12 12 S 3 6 30.06 1018 10 16.09344 0 0
11:53 am 11:53 Sunny 60 15.6 4 -15.6 10 10 S 3 6 30.03 1017 10 16.09344 0 0
12:53 pm 12:53 Sunny 63 17.2 5 -15 10 10 Calm 30 1016 10 16.09344 0 0
1:53 pm 13:53 Sunny 65 18.3 5 -15 9 9 Calm 29.97 1015 10 16.09344 0 0
2:53 pm 14:53 Sunny 64 17.8 5 -15 9 9 N 3 6 29.94 1014 10 16.09344 0 0
3:53 pm 15:53 Sunny 64 17.8 5 -15 9 9 Calm 29.94 1014 10 16.09344 0 0
4:53 pm 16:53 Clear 61 16.1 4 -15.6 10 10 ESE 3 6 29.94 1014 10 16.09344 0 0
5:53 pm 17:53 Clear 59 15 6 -14.4 12 12 Calm 29.94 1014 10 16.09344 0 0
6:53 pm 18:53 Clear 54 12.2 15 -9.4 21 21 NW 6 9 29.94 1014 10 16.09344 0 0
7:53 pm 19:53 Clear 52 11.1 15 -9.4 23 23 NNW 6 9 29.94 1014 10 16.09344 0 0
8:53 pm 20:53 Clear 50 10 18 -7.8 28 28 WNW 5 7 29.94 1014 10 16.09344 0 0
9:53 pm 21:53 Clear 48 8.9 17 -8.3 29 29 Calm 29.97 1015 10 16.09344 0 0
10:53 pm 22:53 Clear 47 8.3 16 -8.9 29 29 WNW 5 7 29.97 1015 10 16.09344 0 0
11:53 pm 23:53 Clear 52 11.1 -2 -18.9 10 10 NNE 7 11 29.97 1015 10 16.09344 0 0

Powered by AerisWeather